| time (UTC) | temp F | wind direction | speed MPH | gust MPH | rain 1hr in | rain 24hr in | rain mn in | humidity % | barometer mb |
| 20260506060417 | 50 | 342 | 0.0 | 3.0 | 0.00 | 0.43 | 0.37 | 95 | 1006.3 |
| 20260506051152 | 50 | 12 | 0.0 | 3.0 | 0.04 | 0.41 | 0.36 | 95 | 1006.3 |
| 20260506050136 | 50 | 344 | 0.0 | 3.0 | 0.10 | 0.40 | 0.35 | 95 | 1006.4 |
| 20260506045117 | 50 | 336 | 0.0 | 2.0 | 0.11 | 0.39 | 0.33 | 95 | 1006.3 |
| 20260506044137 | 50 | 277 | 0.0 | 1.0 | 0.07 | 0.37 | 0.32 | 95 | 1006.4 |
| 20260506043203 | 50 | 236 | 0.0 | 2.0 | 0.00 | 0.37 | 0.31 | 95 | 1006.4 |
| 20260506042156 | 50 | 257 | 0.0 | 2.0 | 0.00 | 0.36 | 0.30 | 95 | 1006.4 |
| 20260506041220 | 50 | 246 | 0.0 | 5.0 | 0.00 | 0.36 | 0.29 | 95 | 1006.4 |
| 20260506040214 | 50 | 345 | 0.0 | 5.0 | 0.03 | 0.36 | 0.29 | 95 | 1006.5 |
| 20260506035220 | 50 | 224 | 0.0 | 3.0 | 0.03 | 0.36 | 0.29 | 95 | 1006.5 |
| 20260506034152 | 50 | 331 | 0.0 | 3.0 | 0.03 | 0.35 | 0.29 | 95 | 1006.4 |
| 20260506033200 | 50 | 261 | 0.0 | 3.0 | 0.03 | 0.35 | 0.28 | 95 | 1006.4 |
| 20260506032148 | 50 | 234 | 0.0 | 5.0 | 0.03 | 0.34 | 0.27 | 95 | 1006.4 |
| 20260506031201 | 50 | 333 | 0.0 | 5.0 | 0.07 | 0.35 | 0.27 | 95 | 1006.4 |
| 20260506030134 | 50 | 329 | 0.0 | 3.0 | 0.03 | 0.34 | 0.25 | 95 | 1006.6 |
| 20260506025123 | 50 | 355 | 0.0 | 3.0 | 0.04 | 0.33 | 0.25 | 95 | 1006.7 |
| 20260506024145 | 50 | 329 | 0.0 | 4.0 | 0.03 | 0.33 | 0.25 | 95 | 1006.8 |
| 20260506023117 | 50 | 217 | 0.0 | 4.0 | 0.03 | 0.34 | 0.24 | 95 | 1006.9 |
| 20260506021017 | 50 | 260 | 0.0 | 1.0 | 0.00 | 0.33 | 0.23 | 95 | 1007.0 |
| 20260506012643 | 51 | 330 | 1.0 | 4.0 | 0.03 | 0.34 | 0.22 | 95 | 1007.0 |
| 20260506011629 | 51 | 226 | 0.0 | 2.0 | 0.07 | 0.33 | 0.21 | 95 | 1007.1 |
| 20260506010650 | 51 | 316 | 0.0 | 3.0 | 0.09 | 0.33 | 0.20 | 95 | 1007.0 |
| 20260506005655 | 51 | 303 | 0.0 | 3.0 | 0.06 | 0.30 | 0.18 | 95 | 1007.1 |
| 20260506004713 | 51 | 335 | 0.0 | 2.0 | 0.07 | 0.29 | 0.17 | 95 | 1007.3 |
| 20260506003639 | 51 | 223 | 0.0 | 2.0 | 0.06 | 0.28 | 0.15 | 95 | 1007.4 |
| 20260506002652 | 51 | 304 | 0.0 | 1.0 | 0.10 | 0.27 | 0.14 | 95 | 1007.4 |
| 20260506001646 | 51 | 307 | 0.0 | 2.0 | 0.06 | 0.25 | 0.13 | 94 | 1007.6 |
| 20260506000652 | 51 | 338 | 0.0 | 2.0 | 0.03 | 0.25 | 0.12 | 95 | 1007.6 |
| 20260505235644 | 51 | 236 | 0.0 | 2.0 | 0.08 | 0.24 | 0.11 | 94 | 1007.8 |
| 20260505234635 | 51 | 252 | 0.0 | 3.0 | 0.03 | 0.22 | 0.11 | 95 | 1007.8 |
| 20260505233632 | 51 | 269 | 0.0 | 3.0 | 0.08 | 0.22 | 0.10 | 94 | 1007.9 |
| 20260505232648 | 51 | 279 | 0.0 | 2.0 | 0.07 | 0.21 | 0.08 | 94 | 1008.0 |
| 20260505231623 | 51 | 302 | 0.0 | 2.0 | 0.03 | 0.19 | 0.07 | 94 | 1008.0 |
| 20260505230640 | 51 | 281 | 0.0 | 1.0 | 0.05 | 0.19 | 0.07 | 94 | 1008.0 |
| 20260505225700 | 51 | 232 | 0.0 | 1.0 | 0.03 | 0.18 | 0.06 | 94 | 1008.0 |
| 20260505224656 | 51 | 249 | 0.0 | 3.0 | 0.10 | 0.18 | 0.05 | 94 | 1008.1 |
| 20260505223711 | 51 | 219 | 0.0 | 3.0 | 0.04 | 0.16 | 0.03 | 94 | 1008.1 |
| 20260505222728 | 51 | 294 | 0.0 | 2.0 | 0.08 | 0.15 | 0.03 | 94 | 1008.1 |
| 20260505221731 | 51 | 341 | 0.0 | 2.0 | 0.14 | 0.14 | 0.02 | 94 | 1008.1 |
| 20260505220740 | 51 | 348 | 0.0 | 0.0 | 0.06 | 0.12 | 0.00 | 94 | 1008.2 |
| 20260505215715 | 52 | 273 | 0.0 | 2.0 | 0.00 | 0.12 | 0.12 | 94 | 1008.3 |
| 20260505214642 | 52 | 334 | 0.0 | 3.0 | 0.00 | 0.11 | 0.11 | 94 | 1008.3 |
| 20260505212509 | 52 | 336 | 0.0 | 2.0 | 0.00 | 0.11 | 0.11 | 93 | 1008.4 |
| 20260505211529 | 52 | 340 | 1.0 | 4.0 | 0.00 | 0.11 | 0.11 | 93 | 1008.5 |
| 20260505210510 | 52 | 5 | 0.0 | 4.0 | 0.00 | 0.11 | 0.11 | 93 | 1008.5 |
| 20260505205503 | 52 | 9 | 0.0 | 3.0 | 0.00 | 0.10 | 0.10 | 93 | 1008.6 |
| 20260505204440 | 52 | 336 | 0.0 | 4.0 | 0.03 | 0.10 | 0.10 | 93 | 1008.6 |
| 20260505203412 | 52 | 345 | 0.0 | 4.0 | 0.03 | 0.10 | 0.10 | 93 | 1008.7 |
| 20260505202437 | 52 | 344 | 0.0 | 3.0 | 0.00 | 0.09 | 0.09 | 93 | 1008.6 |
| 20260505201454 | 52 | 355 | 0.0 | 3.0 | 0.00 | 0.08 | 0.09 | 93 | 1008.6 |
| 20260505200437 | 52 | 254 | 0.0 | 3.0 | 0.00 | 0.08 | 0.08 | 93 | 1008.5 |
| 20260505195454 | 52 | 33 | 0.0 | 3.0 | 0.00 | 0.08 | 0.08 | 93 | 1008.5 |
| 20260505194509 | 52 | 342 | 0.0 | 3.0 | 0.00 | 0.08 | 0.08 | 93 | 1008.5 |
| 20260505193531 | 52 | 344 | 0.0 | 4.0 | 0.00 | 0.07 | 0.07 | 92 | 1008.4 |
| 20260505192516 | 52 | 355 | 1.0 | 4.0 | 0.00 | 0.07 | 0.07 | 92 | 1008.4 |
| 20260505191538 | 52 | 351 | 1.0 | 3.0 | 0.00 | 0.07 | 0.07 | 92 | 1008.4 |
| 20260505190524 | 52 | 335 | 0.0 | 5.0 | 0.00 | 0.07 | 0.07 | 92 | 1008.4 |
| 20260505185458 | 52 | 338 | 1.0 | 5.0 | 0.00 | 0.07 | 0.07 | 92 | 1008.4 |
| 20260505184437 | 53 | 292 | 0.0 | 2.0 | 0.00 | 0.07 | 0.07 | 92 | 1008.4 |
| 20260505183455 | 53 | 261 | 0.0 | 4.0 | 0.00 | 0.07 | 0.07 | 92 | 1008.3 |
| 20260505175039 | 53 | 350 | 1.0 | 5.0 | 0.00 | 0.07 | 0.07 | 91 | 1008.5 |
| 20260505174030 | 53 | 345 | 1.0 | 3.0 | 0.00 | 0.07 | 0.07 | 91 | 1008.5 |
| 20260505173028 | 53 | 348 | 0.0 | 3.0 | 0.00 | 0.07 | 0.07 | 90 | 1008.6 |
| 20260505172003 | 53 | 337 | 1.0 | 4.0 | 0.00 | 0.07 | 0.07 | 90 | 1008.5 |
| 20260505165819 | 54 | 344 | 1.0 | 6.0 | 0.00 | 0.07 | 0.07 | 90 | 1008.6 |
| 20260505164801 | 54 | 5 | 1.0 | 4.0 | 0.00 | 0.07 | 0.07 | 89 | 1008.6 |
| 20260505163727 | 54 | 345 | 1.0 | 4.0 | 0.00 | 0.07 | 0.07 | 90 | 1008.6 |
| 20260505162744 | 54 | 336 | 2.0 | 5.0 | 0.00 | 0.08 | 0.07 | 89 | 1008.6 |
| 20260505161733 | 54 | 355 | 1.0 | 5.0 | 0.00 | 0.08 | 0.07 | 89 | 1008.6 |
| 20260505160710 | 54 | 9 | 2.0 | 4.0 | 0.00 | 0.08 | 0.07 | 89 | 1008.6 |
| 20260505152452 | 55 | 291 | 1.0 | 7.0 | 0.00 | 0.09 | 0.07 | 88 | 1008.8 |
| 20260505151419 | 55 | 341 | 2.0 | 7.0 | 0.00 | 0.10 | 0.07 | 88 | 1008.8 |
| 20260505150439 | 55 | 10 | 2.0 | 5.0 | 0.00 | 0.11 | 0.07 | 88 | 1008.7 |
| 20260505140232 | 57 | 0 | 2.0 | 6.0 | 0.00 | 0.21 | 0.07 | 87 | 1009.1 |
| 20260505130152 | 57 | 0 | 1.0 | 5.0 | 0.00 | 0.23 | 0.07 | 87 | 1009.4 |
| 20260505122918 | 57 | 5 | 1.0 | 6.0 | 0.00 | 0.23 | 0.07 | 88 | 1009.6 |
| 20260505121844 | 57 | 5 | 2.0 | 6.0 | 0.00 | 0.23 | 0.07 | 87 | 1009.6 |
| 20260505120822 | 57 | 340 | 2.0 | 6.0 | 0.00 | 0.23 | 0.07 | 87 | 1009.7 |
| 20260505115753 | 58 | 17 | 2.0 | 5.0 | 0.00 | 0.23 | 0.07 | 87 | 1009.7 |
| 20260505114748 | 58 | 320 | 1.0 | 5.0 | 0.00 | 0.23 | 0.07 | 87 | 1009.8 |
| 20260505113753 | 58 | 37 | 1.0 | 6.0 | 0.00 | 0.23 | 0.07 | 87 | 1009.8 |
| 20260505112723 | 58 | 333 | 2.0 | 6.0 | 0.00 | 0.23 | 0.07 | 86 | 1009.6 |
| 20260505111653 | 59 | 332 | 1.0 | 5.0 | 0.00 | 0.23 | 0.07 | 87 | 1009.7 |
| 20260505110714 | 59 | 5 | 1.0 | 5.0 | 0.00 | 0.23 | 0.07 | 86 | 1009.7 |
| 20260505100304 | 59 | 355 | 1.0 | 4.0 | 0.00 | 0.23 | 0.07 | 88 | 1009.9 |
| 20260505095250 | 59 | 336 | 0.0 | 3.0 | 0.00 | 0.23 | 0.07 | 89 | 1009.9 |
| 20260505094315 | 59 | 12 | 0.0 | 2.0 | 0.00 | 0.23 | 0.07 | 89 | 1009.9 |
| 20260505093339 | 59 | 39 | 0.0 | 2.0 | 0.00 | 0.23 | 0.07 | 89 | 1010.0 |
| 20260505092338 | 59 | 5 | 0.0 | 2.0 | 0.00 | 0.23 | 0.07 | 90 | 1010.1 |
| 20260505091312 | 58 | 31 | 0.0 | 2.0 | 0.00 | 0.23 | 0.07 | 90 | 1010.2 |
| 20260505085139 | 58 | 36 | 0.0 | 2.0 | 0.00 | 0.23 | 0.07 | 91 | 1010.2 |
| 20260505084120 | 58 | 24 | 0.0 | 3.0 | 0.00 | 0.23 | 0.07 | 92 | 1010.2 |
| 20260505083107 | 57 | 35 | 0.0 | 3.0 | 0.00 | 0.23 | 0.07 | 92 | 1010.2 |
| 20260505082101 | 57 | 63 | 0.0 | 2.0 | 0.00 | 0.23 | 0.07 | 93 | 1010.2 |
| 20260505075948 | 57 | 5 | 0.0 | 2.0 | 0.00 | 0.23 | 0.07 | 93 | 1010.2 |
| 20260505074926 | 57 | 34 | 0.0 | 0.0 | 0.00 | 0.23 | 0.07 | 94 | 1010.3 |
| 20260505073935 | 57 | 321 | 0.0 | 0.0 | 0.00 | 0.23 | 0.07 | 94 | 1010.3 |
| 20260505071830 | 57 | 302 | 0.0 | 0.0 | 0.00 | 0.23 | 0.07 | 94 | 1010.3 |
| 20260505070853 | 57 | 301 | 0.0 | 1.0 | 0.00 | 0.23 | 0.07 | 94 | 1010.3 |